User: anonymous   Login
Location: Sungai Bunut
(2.6333°N, 113.7333°E)
Time: 16:16:06
(UTC+00:00)
Language:

Cosmos 1697 Rocket - Orbit

View from above orbital plane
View from above orbital plane
View from above satellite
View from above satellite

Ground track
Ground track

The orbit data is extracted from the following two-line orbital elements,

1 16182U 85097B   22024.47555473 -.00000058  00000-0 -49644-5 0  9994
2 16182  71.0024  68.4779 0006623  13.0764  84.9140 14.16264199874405
Epoch (UTC): 24 January 2022 11:24:47
Eccentricity: 0.0006623
inclination: 71.0024°
perigee height: 833 km
apogee height: 843 km
right ascension of ascending node: 68.4779°
argument of perigee: 13.0764°
revolutions per day: 14.16264199
mean anomaly at epoch: 84.9140°
orbit number at epoch: 87440

The dashed part of the orbit path shows where the satellite is in the earth's shadow,  

DLR